アトラス彗星

P/2021 J3 ( ATLAS )

English version
Home page
Updated on September 18, 2021

---------------------------------------------------------------------

・ プロフィール

発見日 2021年5月13日
発見光度 18.6等
発見者 Asteroid Terrestrial-Impact Last Alert System (ATLAS) search program

・ 写真集

・ 軌道要素

Epoch 2019 June 6.0 TT = JDT 2458640.5
T 2019 June 16.88386 TT                                 Rudenko
q   4.8781147            (2000.0)            P               Q
n   0.03875409     Peri.  123.83415     -0.54627119     +0.80406205
a   8.6481732      Node   111.32991     -0.82736156     -0.47428792
e   0.4359370      Incl.   14.59182     -0.13061638     -0.35851804
P  25.4
From 131 observations 2021 May 13-Aug. 28, mean residual 0".6.

・ 光度変化

        m1 = 7.0 + 5 logΔ + 10.0 log r

---------------------------------------------------------------------

軌道要素はM.P.E.C. 2021-R75に掲載されたものです。
光度グラフはComet for Windowsで作成したものです。

---------------------------------------------------------------------

Copyright(C) Seiichi Yoshida (comet@aerith.net). All rights reserved.